{"data":{"norad_id":69665,"epoch":"2026-09-19T13:31:40.303488Z","epoch_age_seconds":102559,"freshness":"FRESH","line1":"1 69665U 26143S   26262.56366092  .00011023  00000+0  34318-3 0  9991","line2":"2 69665  97.2842 305.6837 0000413  89.0733 271.0557 15.33453861 14995","mean_motion":15.33453861,"eccentricity":4.13e-5,"inclination_deg":97.2842,"raan_deg":305.6837,"arg_perigee_deg":89.0733,"mean_anomaly_deg":271.0557,"bstar":0.00034318,"rev_number":1499,"period_min":93.905662023698,"perigee_km":465.23416760095,"apogee_km":465.7994534057,"semimajor_km":6843.6538105033,"source":"CELESTRAK","updated_at":"2026-09-20T09:00:44.250082Z"}}